Wind_Speed
29 30 32 33 34 37 37 36 35 37 36 36 35 36 39 39 39 33 33 34 35 35
32 33 35 34 34 34 34 34 34 34 37 38 38 37 38 36 36 36 37 35 36 34
34 34 35 35 36 37 38 38 38 39 37 36 35 36 36 37 41 40 41 42 39 39
35 36 36 33 33 35 37 38 39 39 40 38 37 35 35 37 39 35 38 37 39 39
35 33 32 35 35 32 32 32 34 38 39 43 45 39 37 37 37 33 38 34 36 40
32 33 34 35 36 38 40 46 45 41 43 44 43 42 41 38 36 34 38 34 33 31
34 37 34 36 42 45 41 41 44 41 44 45 44 45 42 38 37 35 38 35 35 32
33 36 44 38 39 41 39 44 43 44 47 45 42 42 38 38 37 34 33 36 34 41
37 41 41 41 39 42 43 45 42 46 45 45 43 42 37 36 37 35 38 36 40 38
37 40 42 42 42 44 46 46 45 45 43 42 38 37 37 36 35 36 36 37 36 34
38 42 44 45 44 46 45 46 44 42 41 40 38 32 30 31 32 33 33 35 33 30
39 48 46 47 45 44 46 46 44 40 40 36 35 30 29 26 27 27 29 28 29 29
47 46 45 47 48 43 42 45 42 41 38 33 30 28 24 24 25 27 25 24 26 26
43 44 45 47 46 46 46 46 41 37 35 31 28 28 24 21 22 22 23 23 19 22
Wind_Direction
305 302 299 298 300 301 303 301 298 297 295 292 287 284 278 276 274 276 274 272 270 269
299 298 302 303 303 304 302 301 299 296 293 290 290 286 275 276 274 272 269 273 264 264
301 302 302 301 300 298 299 300 298 295 293 295 292 284 281 276 275 273 272 268 263 261
303 301 302 304 304 304 304 304 301 299 296 295 292 288 287 281 276 266 271 268 259 259
303 305 304 305 308 306 302 299 301 298 294 292 289 291 285 279 273 272 269 268 259 254
307 306 306 304 297 299 300 298 301 300 294 294 292 290 283 281 277 271 268 264 260 256
301 305 307 303 301 304 308 303 301 295 293 292 289 286 278 277 273 272 265 265 253 258
309 302 306 315 306 308 302 303 300 297 298 292 292 283 280 275 271 268 270 267 264 251
303 311 313 313 309 305 302 304 295 303 296 293 295 279 278 271 275 269 272 264 260 256
317 313 314 310 306 307 306 306 306 303 300 297 296 289 279 273 271 265 265 263 257 260
314 314 310 313 309 311 310 309 309 307 304 299 298 289 286 276 271 268 266 259 258 254
313 317 315 314 316 316 312 308 310 308 299 298 295 289 285 279 278 270 268 260 251 253
318 320 318 318 319 317 313 309 306 305 302 300 295 298 289 277 274 271 268 263 254 251
323 323 322 322 319 316 314 310 304 300 302 298 292 291 287 277 273 268 261 259 262 260
Height
1504 1499 1495 1491 1487 1483 1479 1476 1474 1471 1469 1467 1465 1463 1461 1459 1458 1458 1457 1457 1458 1457
1497 1493 1489 1484 1481 1476 1473 1469 1466 1463 1460 1458 1455 1454 1452 1450 1449 1449 1448 1448 1448 1448
1490 1486 1482 1477 1473 1469 1464 1461 1457 1453 1450 1448 1446 1444 1442 1440 1438 1438 1437 1437 1438 1438
1483 1479 1475 1471 1467 1462 1457 1453 1449 1445 1441 1438 1436 1434 1432 1429 1428 1426 1427 1427 1427 1427
1477 1473 1469 1464 1460 1456 1451 1446 1441 1437 1432 1428 1426 1424 1422 1420 1418 1417 1417 1417 1418 1418
1471 1466 1461 1457 1452 1447 1441 1436 1432 1427 1423 1418 1415 1412 1410 1409 1408 1406 1407 1406 1408 1408
1463 1459 1454 1449 1443 1438 1433 1428 1422 1418 1413 1408 1404 1400 1398 1397 1396 1395 1395 1396 1396 1398
1457 1452 1446 1440 1435 1429 1424 1418 1412 1407 1401 1396 1392 1388 1387 1386 1385 1383 1383 1385 1385 1389
1450 1445 1439 1432 1426 1421 1414 1407 1402 1396 1389 1384 1379 1376 1374 1375 1372 1373 1373 1373 1375 1378
1444 1437 1431 1424 1418 1411 1403 1397 1390 1383 1379 1371 1368 1364 1362 1363 1363 1363 1363 1364 1366 1367
1437 1430 1422 1415 1408 1400 1394 1386 1379 1372 1367 1362 1357 1355 1354 1353 1352 1353 1353 1355 1357 1360
1431 1422 1413 1405 1398 1390 1382 1375 1369 1363 1357 1353 1349 1346 1346 1345 1344 1344 1344 1346 1349 1353
1424 1415 1405 1397 1388 1381 1374 1366 1359 1354 1350 1346 1341 1340 1339 1338 1337 1337 1338 1340 1342 1346
1416 1407 1399 1389 1380 1372 1364 1356 1350 1345 1341 1337 1335 1332 1332 1331 1331 1330 1331 1333 1336 1339